Effective Sunday, March 17, 2024, the National Weather Service National Data Buoy Center will discontinue its Dial-A-Buoy Interactive Voice Response system. For more information, see Service Change Notice 24-06 (PDF).

Station 44078 - OOI Irminger Sea Surface Mooring Image indicating link to RSS feed of recent meteorological observations for station 44078


Conditions at 44078 as of
0500 GMT on 02/25/2024:
     

Click on the graph icon in the table below to see a time series plot of the last five days of that observation.

5-day plot - Wind Direction Wind Direction (WDIR): S ( 190 deg true )
5-day plot - Wind Speed Wind Speed (WSPD): 19.4 kts
5-day plot - Atmospheric Pressure Atmospheric Pressure (PRES):29.71 in
5-day plot - Pressure Tendency Pressure Tendency (PTDY):-0.06 in ( Falling )
5-day plot - Air Temperature Air Temperature (ATMP): 37.2 °F
5-day plot - Water Temperature Water Temperature (WTMP): 39.6 °F
5-day plot - Salinity Salinity (SAL): 34.87 psu
5-day plot - Wind Chill Wind Chill (CHILL): 26.2 °F
5-day plot -  Wind Speed, Wind Gust and Atmospheric Pressure Combined plot of Wind Speed, Gust, and Air Pressure
Previous observations
TIME
(GMT)
5-day plot - Wind Direction
WDIR
 
5-day plot - Wind Speed
WSPD
kts
5-day plot - Wind Gust
GST
kts
5-day plot - Wave Height
WVHT
ft
5-day plot - Dominant Wave Period
DPD
sec
5-day plot - Average Wave Period
APD
sec
5-day plot - Mean Wave Direction
MWD
 
5-day plot - Atmospheric Pressure
PRES
in
5-day plot - Pressure Tendency
PTDY
in
5-day plot - Air Temperature
ATMP
°F
5-day plot - Water Temperature
WTMP
°F
5-day plot - Dew Point
DEWP
°F
5-day plot - Salinity
SAL
psu
5-day plot - Visibility
VIS
nmi
5-day plot - Tide (above MLLW)
TIDE
ft
2024-02-25 0450SSW 19.4-----29.72- 37.2 39.6- 34.87--
2024-02-25 0440 SW 19.4-----29.73- 37.2 39.6- 34.87--
2024-02-25 0430 SW 19.4- 6.6--SSW29.74- 37.4 39.6- 34.87--
2024-02-25 0420 SW 19.4- 6.6 7--29.74- 37.8 39.6- 34.87--
2024-02-25 0410 SW 19.4-----29.74- 37.8 39.6- 34.87--
2024-02-25 0400 SW 17.5-----29.75-0.05 37.8 39.6- 34.87--
2024-02-25 0350 SW 17.5-----29.75- 37.8 39.6- 34.87--
2024-02-25 0340 SW 17.5-----29.76- 37.8 39.6- 34.87--
2024-02-25 0330 SW 17.5- 5.9-- S29.76- 37.4 39.6- 34.87--
2024-02-25 0320 SW 17.5- 5.9 7--29.77- 37.4 39.6- 34.87--
2024-02-25 0310 SW 17.5-----29.77- 37.0 39.6- 34.87--
2024-02-25 0300 SW 17.5-----29.77-0.03 37.2 39.6- 34.87--
2024-02-25 0250WSW 17.5-----29.77- 37.4 39.6- 34.87--
2024-02-25 0240 SW 19.4-----29.78- 37.4 39.6- 34.87--
2024-02-25 0230 SW 17.5- 5.2--SSE29.77- 37.4 39.6- 34.87--
2024-02-25 0220 SW 15.5- 5.2 8--29.78- 37.4 39.6- 34.87--
2024-02-25 0210 SW 15.5-----29.78- 37.2 39.6- 34.87--
2024-02-25 0200WSW 13.6-----29.78- 36.7 39.6- 34.87--
2024-02-25 0150 SW 17.5-----29.78- 37.2 39.6- 34.87--
2024-02-25 0140 SW 15.5-----29.79- 37.4 39.6- 34.87--
2024-02-25 0130 SW 15.5- 4.9--SSE29.79- 37.0 39.6- 34.87--
2024-02-25 0120 SW 13.6- 4.9 8--29.79- 36.9 39.6- 34.88--
2024-02-25 0110 SW 13.6-----29.79- 37.2 39.6- 34.87--
2024-02-25 0100 SW 13.6-----29.80- 37.2 39.6- 34.87--
2024-02-25 0050 SW 11.7-----29.80- 37.0 39.6- 34.87--
2024-02-25 0040 SW 13.6-----29.80- 37.0 39.6- 34.87--
2024-02-25 0030 SW 11.7- 4.6--ESE29.80- 37.2 39.6- 34.87--
2024-02-25 0020 SW 11.7- 4.6 8--29.80- 37.2 39.6- 34.87--
2024-02-25 0010 SW 11.7-----29.80- 37.2 39.6- 34.87--
2024-02-25 0000 SW 11.7-----29.80- 37.2 39.6- 34.87--
2024-02-24 2350WSW 11.7-----29.80- 37.2 39.6- 34.87--
2024-02-24 2340WSW 9.7-----29.80- 37.0 39.7- 34.87--
2024-02-24 2330WSW 9.7- 4.6--ESE29.80- 37.0 39.7- 34.87--
2024-02-24 2320WSW 11.7- 4.6 8--29.80- 37.0 39.7- 34.87--
2024-02-24 2310WSW 13.6-----29.80- 37.0 39.7- 34.87--
2024-02-24 2300WSW 13.6-----29.80- 37.2 39.7- 34.87--
2024-02-24 2250 W 11.7-----29.79- 37.2 39.7- 34.87--
2024-02-24 2240 W 11.7-----29.79- 37.2 39.7- 34.87--
2024-02-24 2230 W 11.7- 4.6-- E29.78- 37.0 39.7- 34.87--
2024-02-24 2220 W 11.7- 4.9 9--29.79- 37.0 39.7- 34.87--
2024-02-24 2210 W 11.7-----29.78- 37.0 39.7- 34.87--
2024-02-24 2200 W 11.7-----29.78- 37.0 39.7- 34.87--
2024-02-24 2150 W 9.7-----29.78- 37.0 39.7- 34.87--
2024-02-24 2140 W 9.7-----29.78- 36.9 39.7- 34.87--
2024-02-24 2130WNW 11.7- 4.9-- E29.78- 36.9 39.7- 34.87--
2024-02-24 2120 W 11.7- 4.9 8--29.77- 36.9 39.7- 34.87--
2024-02-24 2110 W 11.7-----29.77- 37.0 39.7- 34.87--
2024-02-24 2100 W 11.7-----29.77- 37.2 39.7- 34.87--
2024-02-24 2050 W 11.7-----29.77- 37.2 39.7- 34.87--
2024-02-24 2040WNW 13.6-----29.77- 37.4 39.7- 34.87--
2024-02-24 2030WNW 11.7- 4.9-- E29.76- 37.6 39.7- 34.87--
2024-02-24 2020 W 11.7- 4.9 9--29.75- 37.9 39.7- 34.87--
2024-02-24 2010 W 9.7-----29.75- 37.9 39.7- 34.87--
2024-02-24 2000 W 7.8-----29.75- 37.8 39.7- 34.87--
2024-02-24 1950 W 5.8-----29.74- 37.6 39.7- 34.87--
2024-02-24 1940 W 5.8-----29.75- 37.6 39.7- 34.87--
2024-02-24 1930 W 7.8- 5.6--ENE29.75- 37.6 39.7- 34.87--
2024-02-24 1920 W 7.8- 5.6 9--29.74- 37.6 39.7- 34.87--
2024-02-24 1910 W 7.8-----29.74- 37.4 39.7- 34.87--
2024-02-24 1900 W 7.8-----29.74- 37.4 39.7- 34.87--
2024-02-24 1850 W 5.8-----29.73- 37.4 39.7- 34.87--
2024-02-24 1840 W 7.8-----29.73- 37.4 39.7- 34.87--
2024-02-24 1830 W 5.8- 5.6-- E29.72- 37.4 39.7- 34.87--
2024-02-24 1820 W 7.8- 5.6 9--29.72- 37.4 39.7- 34.87--
2024-02-24 1810 W 5.8-----29.72- 37.6 39.7- 34.87--
2024-02-24 1800 W 3.9-----29.72- 37.2 39.7- 34.87--
2024-02-24 1750WNW 3.9-----29.71- 37.0 39.9- 34.87--
2024-02-24 1740 W 3.9-----29.71- 37.0 39.9- 34.87--
2024-02-24 1730 W 3.9- 6.6-- E29.70- 37.0 39.9- 34.87--
2024-02-24 1720WNW 5.8- 6.6 9--29.70- 37.2 39.9- 34.87--
2024-02-24 1710 W 3.9-----29.70- 37.8 39.9- 34.87--
2024-02-24 1700NNW 1.9-----29.70- 38.5 39.9- 34.87--
2024-02-24 1650 N 1.9-----29.69- 38.1 39.9- 34.87--
2024-02-24 1640NNE 1.9-----29.69- 37.6 39.7- 34.87--
2024-02-24 1630NNE 1.9- 6.2--ESE29.68- 37.2 39.7- 34.87--
2024-02-24 1620- 0.0- 6.2 9--29.68- 37.2 39.7- 34.87--
2024-02-24 1610- 0.0-----29.68- 37.0 39.7- 34.87--
2024-02-24 1600NNW 1.9-----29.68- 37.0 39.7- 34.87--
2024-02-24 1550 N 3.9-----29.68- 37.0 39.7- 34.87--
2024-02-24 1540 NW 3.9-----29.68- 37.0 39.7- 34.87--
2024-02-24 1530 NW 3.9- 6.2-- E29.68- 37.4 39.7- 34.87--
2024-02-24 1520 NW 1.9- 6.2 9--29.67- 37.6 39.9- 34.87--
2024-02-24 1510- 0.0-----29.66- 37.9 39.7- 34.87--
2024-02-24 1500ENE 1.9-----29.66- 37.4 39.9- 34.87--
2024-02-24 1450ENE 3.9-----29.65- 37.4 39.7- 34.87--
2024-02-24 1440 NE 3.9-----29.66- 37.4 39.7- 34.87--
2024-02-24 1430NNE 3.9- 6.6-- E29.65- 37.6 39.7- 34.87--
2024-02-24 1420NNE 1.9- 6.6 10--29.65- 37.6 39.7- 34.87--
2024-02-24 1410 NE 1.9-----29.65- 37.4 39.7- 34.87--
2024-02-24 1400 N 1.9-----29.65- 37.2 39.7- 34.87--
2024-02-24 1350NNE 3.9-----29.65- 37.0 39.7- 34.87--
2024-02-24 1340NNE 3.9-----29.65- 36.9 39.7- 34.87--
2024-02-24 1330NNE 3.9- 5.6-- E29.64- 37.0 39.7- 34.87--
2024-02-24 1320 NE 3.9- 5.6 9--29.63- 37.2 39.7- 34.87--
2024-02-24 1310NNE 3.9-----29.63- 36.9 39.7- 34.87--
2024-02-24 1300 NE 3.9-----29.62- 36.9 39.7- 34.87--
2024-02-24 1250 NE 3.9-----29.62- 36.9 39.7- 34.87--
2024-02-24 1240 NE 5.8-----29.61- 36.7 39.7- 34.87--
2024-02-24 1230 NE 3.9- 6.9-- E29.61- 36.9 39.7- 34.87--
2024-02-24 1220ENE 5.8- 6.9 9--29.60- 37.0 39.7- 34.87--
2024-02-24 1210ENE 5.8-----29.59- 36.9 39.7- 34.87--
2024-02-24 1200ENE 5.8-----29.59- 36.9 39.7- 34.87--
2024-02-24 1150ENE 5.8-----29.58- 36.7 39.7- 34.87--
2024-02-24 1140ENE 5.8-----29.57- 36.7 39.7- 34.87--
2024-02-24 1130 NE 5.8- 7.2--ESE29.57- 36.7 39.7- 34.87--
2024-02-24 1120ENE 5.8- 7.5 10--29.57- 36.5 39.7- 34.87--
2024-02-24 1110ENE 5.8-----29.57- 36.5 39.7- 34.87--
2024-02-24 1100ENE 5.8-----29.56- 36.5 39.7- 34.87--
2024-02-24 1050 NE 5.8-----29.55- 36.5 39.7- 34.87--
2024-02-24 1040 NE 5.8-----29.55- 36.5 39.7- 34.87--
2024-02-24 1030ENE 3.9- 7.5--ESE29.55- 36.3 39.7- 34.87--
2024-02-24 1020ENE 5.8- 7.5 10--29.54- 36.1 39.7- 34.87--
2024-02-24 1010ENE 3.9-----29.54- 36.1 39.6- 34.87--
2024-02-24 1000ENE 3.9-----29.53- 36.0 39.6- 34.87--
2024-02-24 0950 E 3.9-----29.52- 36.0 39.6- 34.88--
2024-02-24 0940 E 3.9-----29.52- 36.0 39.6- 34.87--
2024-02-24 0930 E 3.9- 8.2-- SE29.51- 35.8 39.6- 34.88--
2024-02-24 0920 E 3.9- 8.2 10--29.50- 35.8 39.6- 34.87--
2024-02-24 0910 E 3.9-----29.50- 35.8 39.6- 34.88--
2024-02-24 0900 E 3.9-----29.49- 35.8 39.6- 34.87--
2024-02-24 0850 E 3.9-----29.48- 35.6 39.6- 34.88--
2024-02-24 0840 E 3.9-----29.48- 35.6 39.6- 34.88--
2024-02-24 0830 E 3.9- 7.9-- E29.47- 35.6 39.6- 34.88--
2024-02-24 0820 E 3.9- 7.9 10--29.47- 35.4 39.6- 34.88--
2024-02-24 0810ESE 3.9-----29.47- 35.4 39.6- 34.88--
2024-02-24 0800ESE 1.9-----29.46- 35.4 39.6- 34.88--
2024-02-24 0750 E 1.9-----29.46- 35.1 39.7- 34.88--
2024-02-24 0740 SE 1.9-----29.46- 35.1 39.6- 34.88--
2024-02-24 0730 S 1.9- 7.9--ESE29.46- 35.1 39.6- 34.88--
2024-02-24 0720- 0.0- 7.9 10--29.45- 34.9 39.6- 34.88--
2024-02-24 0710ENE 1.9-----29.44- 34.9 39.6- 34.88--
2024-02-24 0700ENE 1.9-----29.44- 34.9 39.6- 34.88--
2024-02-24 0650- 0.0-----29.44- 34.9 39.6- 34.88--
2024-02-24 0640- 0.0-----29.44- 34.9 39.6- 34.88--
2024-02-24 0630- 0.0- 8.9-- E29.43- 34.9 39.6- 34.88--
2024-02-24 0620- 0.0- 8.9 10--29.43- 34.7 39.6- 34.88--
2024-02-24 0610SSW 1.9-----29.42- 34.9 39.6- 34.88--
2024-02-24 0600 SW 1.9-----29.42- 34.9 39.6- 34.88--
2024-02-24 0550WSW 1.9-----29.42- 34.9 39.6- 34.88--
2024-02-24 0540WSW 1.9-----29.41- 34.9 39.6- 34.88--
2024-02-24 0530WSW 1.9- 8.2-- SE29.41- 34.9 39.6- 34.88--
2024-02-24 0520WSW 3.9- 8.2 10--29.41- 35.1 39.6- 34.87--
2024-02-24 0510WSW 3.9-----29.41- 35.1 39.6- 34.87--
2024-02-24 0500WSW 3.9-----29.41- 35.1 39.6- 34.88--
2024-02-24 0450 SW 3.9-----29.40- 35.1 39.6- 34.88--

Detailed Wave Summary
for 44078 as of
0420 GMT on 02/25/2024:

These wave data are displayed in rounded times.

     

Click on the graph icon in the table below to see a time series plot of the last five days of that observation.

5-day plot - Significant Wave Height Significant Wave Height (WVHT): 6.6 ft
5-day plot - Wave Steepness Wave Steepness (STEEPNESS): STEEP
Previous observations
TIME
(GMT)
5-day plot - Wave Height
WVHT
ft
5-day plot - Swell Height
SwH
ft
5-day plot - Swell Period
SwP
sec
5-day plot - Swell Direction
SwD
 
5-day plot - Wind Wave Height
WWH
ft
5-day plot - Wind Wave Period
WWP
sec
5-day plot - Wind Wave Direction
WWD
 
5-day plot - Wave Steepness
STEEPNESS
 
5-day plot - Average Wave Period
APD
sec
2024-02-25 0320 5.9------ STEEP-
2024-02-25 0220 5.2------ AVERAGE-
2024-02-25 0120 4.9------ AVERAGE-
2024-02-25 0020 4.6------ AVERAGE-
2024-02-24 2320 4.6------ AVERAGE-
2024-02-24 2220 4.6------ AVERAGE-
2024-02-24 2120 4.9------ AVERAGE-
2024-02-24 2020 4.9------ AVERAGE-
2024-02-24 1920 5.6------ AVERAGE-
2024-02-24 1820 5.6------ AVERAGE-
2024-02-24 1720 6.6------ AVERAGE-
2024-02-24 1620 6.2------ AVERAGE-
2024-02-24 1520 6.2------ AVERAGE-
2024-02-24 1420 6.6------ AVERAGE-
2024-02-24 1320 5.6------ AVERAGE-
2024-02-24 1220 6.9------ AVERAGE-
2024-02-24 1120 7.2------ AVERAGE-
2024-02-24 1020 7.5------ AVERAGE-
2024-02-24 0920 8.2------ AVERAGE-
2024-02-24 0820 7.9------ AVERAGE-
2024-02-24 0720 7.9------ AVERAGE-
2024-02-24 0620 8.9------ AVERAGE-
2024-02-24 0520 8.2------ AVERAGE-

Ocean Conditions at 44078 as of
0450 GMT on 02/25/2024:

These oceanographic data are displayed in rounded times.

     

Click on the graph icon in the table below to see a time series plot of the last five days of that observation.

Depth (DEPTH): 3.0 ft
5-day plot - Ocean Temperature Ocean Temperature (OTMP):39.49 °F
5-day plot - Salinity Salinity (SAL):34.87 psu
Previous observations
TIME
(GMT)
DEPTH
ft
5-day plot - Ocean Temperature
OTMP
°F
5-day plot - Conductivity
COND
mS/cm
5-day plot - Salinity
SAL
psu
5-day plot - Oxygen Concentration
O2%
%
5-day plot - Oxygen Concentration
O2PPM
ppm
5-day plot - Chlorophyll
CLCON
ug/l
5-day plot - Turbidity
TURB
FTU
5-day plot - pH
PH
 
5-day plot - Eh
EH
mv
2024-02-25 0440 3.039.51-34.87------
2024-02-25 0430 3.039.51-34.87------
2024-02-25 0420 3.039.51-34.87------
2024-02-25 0410 3.039.52-34.87------
2024-02-25 0400 3.039.54-34.87------
2024-02-25 0350 3.039.52-34.87------
2024-02-25 0340 3.039.52-34.87------
2024-02-25 0330 3.039.54-34.87------
2024-02-25 0320 3.039.54-34.87------
2024-02-25 0310 3.039.54-34.87------
2024-02-25 0300 3.039.54-34.87------
2024-02-25 0250 3.039.54-34.87------
2024-02-25 0240 3.039.54-34.87------
2024-02-25 0230 3.039.54-34.87------
2024-02-25 0220 3.039.52-34.87------
2024-02-25 0210 3.039.54-34.87------
2024-02-25 0200 3.039.54-34.87------
2024-02-25 0150 3.039.54-34.87------
2024-02-25 0140 3.039.54-34.87------
2024-02-25 0130 3.039.54-34.87------
2024-02-25 0120 3.039.54-34.87------
2024-02-25 0110 3.039.54-34.88------
2024-02-25 0100 3.039.54-34.87------
2024-02-25 0050 3.039.54-34.87------
2024-02-25 0040 3.039.52-34.87------
2024-02-25 0030 3.039.54-34.87------
2024-02-25 0020 3.039.56-34.87------
2024-02-25 0010 3.039.60-34.87------
2024-02-25 0000 3.039.61-34.87------
2024-02-24 2350 3.039.63-34.87------
2024-02-24 2340 3.039.65-34.87------
2024-02-24 2330 3.039.67-34.87------
2024-02-24 2320 3.039.67-34.87------
2024-02-24 2310 3.039.69-34.87------
2024-02-24 2300 3.039.70-34.87------
2024-02-24 2250 3.039.70-34.87------
2024-02-24 2240 3.039.70-34.87------
2024-02-24 2230 3.039.70-34.87------
2024-02-24 2220 3.039.70-34.87------
2024-02-24 2210 3.039.70-34.87------
2024-02-24 2200 3.039.70-34.87------
2024-02-24 2150 3.039.72-34.87------
2024-02-24 2140 3.039.72-34.87------
2024-02-24 2130 3.039.72-34.87------
2024-02-24 2120 3.039.72-34.87------
2024-02-24 2110 3.039.70-34.87------
2024-02-24 2100 3.039.72-34.87------
2024-02-24 2050 3.039.72-34.87------
2024-02-24 2040 3.039.72-34.87------
2024-02-24 2030 3.039.72-34.87------
2024-02-24 2020 3.039.74-34.87------
2024-02-24 2010 3.039.74-34.87------
2024-02-24 2000 3.039.76-34.87------
2024-02-24 1950 3.039.78-34.87------
2024-02-24 1940 3.039.76-34.87------
2024-02-24 1930 3.039.78-34.87------
2024-02-24 1920 3.039.78-34.87------
2024-02-24 1910 3.039.78-34.87------
2024-02-24 1900 3.039.79-34.87------
2024-02-24 1850 3.039.79-34.87------
2024-02-24 1840 3.039.79-34.87------
2024-02-24 1830 3.039.81-34.87------
2024-02-24 1820 3.039.81-34.87------
2024-02-24 1810 3.039.81-34.87------
2024-02-24 1800 3.039.81-34.87------
2024-02-24 1750 3.039.83-34.87------
2024-02-24 1740 3.039.85-34.87------
2024-02-24 1730 3.039.85-34.87------
2024-02-24 1720 3.039.85-34.87------
2024-02-24 1710 3.039.85-34.87------
2024-02-24 1700 3.039.85-34.87------
2024-02-24 1650 3.039.83-34.87------
2024-02-24 1640 3.039.81-34.87------
2024-02-24 1630 3.039.81-34.87------
2024-02-24 1620 3.039.81-34.87------
2024-02-24 1610 3.039.81-34.87------
2024-02-24 1600 3.039.81-34.87------
2024-02-24 1550 3.039.81-34.87------
2024-02-24 1540 3.039.81-34.87------
2024-02-24 1530 3.039.83-34.87------
2024-02-24 1520 3.039.85-34.87------
2024-02-24 1510 3.039.83-34.87------
2024-02-24 1500 3.039.83-34.87------
2024-02-24 1450 3.039.83-34.87------
2024-02-24 1440 3.039.81-34.87------
2024-02-24 1430 3.039.79-34.87------
2024-02-24 1420 3.039.79-34.87------
2024-02-24 1410 3.039.79-34.87------
2024-02-24 1400 3.039.78-34.87------
2024-02-24 1350 3.039.78-34.87------
2024-02-24 1340 3.039.78-34.87------
2024-02-24 1330 3.039.78-34.87------
2024-02-24 1320 3.039.78-34.87------
2024-02-24 1310 3.039.76-34.87------
2024-02-24 1300 3.039.78-34.87------
2024-02-24 1250 3.039.78-34.87------
2024-02-24 1240 3.039.76-34.87------
2024-02-24 1230 3.039.76-34.87------
2024-02-24 1220 3.039.76-34.87------
2024-02-24 1210 3.039.74-34.87------
2024-02-24 1200 3.039.74-34.87------
2024-02-24 1150 3.039.72-34.87------
2024-02-24 1140 3.039.72-34.87------
2024-02-24 1130 3.039.72-34.87------
2024-02-24 1120 3.039.70-34.87------
2024-02-24 1110 3.039.69-34.87------
2024-02-24 1100 3.039.70-34.87------
2024-02-24 1050 3.039.69-34.87------
2024-02-24 1040 3.039.67-34.87------
2024-02-24 1030 3.039.65-34.87------
2024-02-24 1020 3.039.65-34.87------
2024-02-24 1010 3.039.65-34.87------
2024-02-24 1000 3.039.63-34.87------
2024-02-24 0950 3.039.60-34.87------
2024-02-24 0940 3.039.54-34.88------
2024-02-24 0930 3.039.54-34.87------
2024-02-24 0920 3.039.52-34.88------
2024-02-24 0910 3.039.58-34.87------
2024-02-24 0900 3.039.60-34.88------
2024-02-24 0850 3.039.61-34.87------
2024-02-24 0840 3.039.61-34.88------
2024-02-24 0830 3.039.63-34.88------
2024-02-24 0820 3.039.61-34.88------
2024-02-24 0810 3.039.63-34.88------
2024-02-24 0800 3.039.63-34.88------
2024-02-24 0750 3.039.65-34.88------
2024-02-24 0740 3.039.65-34.88------
2024-02-24 0730 3.039.61-34.88------
2024-02-24 0720 3.039.60-34.88------
2024-02-24 0710 3.039.61-34.88------
2024-02-24 0700 3.039.61-34.88------
2024-02-24 0650 3.039.60-34.88------
2024-02-24 0640 3.039.61-34.88------
2024-02-24 0630 3.039.61-34.88------
2024-02-24 0620 3.039.61-34.88------
2024-02-24 0610 3.039.61-34.88------
2024-02-24 0600 3.039.60-34.88------
2024-02-24 0550 3.039.58-34.88------
2024-02-24 0540 3.039.58-34.88------
2024-02-24 0530 3.039.54-34.88------
2024-02-24 0520 3.039.56-34.88------
2024-02-24 0510 3.039.56-34.87------
2024-02-24 0500 3.039.56-34.87------
2024-02-24 0450 3.039.56-34.88------

Solar Radiation Conditions at 44078 as of
0500 GMT on 02/25/2024:
     

Click on the graph icon in the table below to see a time series plot of the last five days of that observation.

5-day plot - Short Wave Radiation 1 Short Wave Radiation 1 (SRAD1): 8.2watts/meter2
5-day plot - Long Wave Radiation Long Wave Radiation (LWRAD): 320.6watts/meter2
Previous observations
TIME
(GMT)
5-day plot - Short Wave Radiation 1
SRAD1
w/m2
5-day plot - Short Wave Radiation 2
SRAD2
w/m2
5-day plot - Long Wave Radiation
LRAD
w/m2
2024-02-25 0450 7.3- 316.2
2024-02-25 0440 7.4- 315.9
2024-02-25 0430 7.2- 316.6
2024-02-25 0420 7.1- 317.3
2024-02-25 0410 7.2- 316.0
2024-02-25 0400 7.0- 209.8
2024-02-25 0350 7.5- 316.0
2024-02-25 0340 7.8- 312.7
2024-02-25 0330 7.6- 308.9
2024-02-25 0320 7.5- 312.2
2024-02-25 0310 6.8- 308.3
2024-02-25 0300 7.0- 210.9
2024-02-25 0250 7.5- 314.3
2024-02-25 0240 7.5- 314.2
2024-02-25 0230 7.5- 309.8
2024-02-25 0220 7.5- 309.6
2024-02-25 0210 7.5- 312.8
2024-02-25 0200 6.7- 239.0
2024-02-25 0150 7.5- 313.4
2024-02-25 0140 7.5- 307.0
2024-02-25 0130 7.1- 308.3
2024-02-25 0120 6.8- 314.1
2024-02-25 0110 7.3- 308.6
2024-02-25 0100 7.1- 238.0
2024-02-25 0050 7.1- 307.2
2024-02-25 0040 7.2- 311.0
2024-02-25 0030 7.1- 305.8
2024-02-25 0020 7.1- 298.1
2024-02-25 0010 7.1- 299.6
2024-02-25 0000 7.0- 301.4
2024-02-24 2350 6.9- 296.4
2024-02-24 2340 6.8- 292.8
2024-02-24 2330 6.9- 290.4
2024-02-24 2320 7.2- 310.6
2024-02-24 2310 7.3- 311.9
2024-02-24 2300 7.2- 274.1
2024-02-24 2250 7.4- 312.1
2024-02-24 2240 7.1- 301.4
2024-02-24 2230 6.7- 276.8
2024-02-24 2220 6.7- 272.3
2024-02-24 2210 6.5- 269.4
2024-02-24 2200 6.2- 262.9
2024-02-24 2150 6.3- 266.7
2024-02-24 2140 6.4- 266.8
2024-02-24 2130 6.5- 275.4
2024-02-24 2120 6.1- 263.6
2024-02-24 2110 6.2- 261.9
2024-02-24 2100 6.0- 261.5
2024-02-24 2050 6.3- 268.0
2024-02-24 2040 6.2- 268.2
2024-02-24 2030 6.5- 275.0
2024-02-24 2020 7.5- 304.9
2024-02-24 2010 6.6- 275.9
2024-02-24 2000 6.8- 260.0
2024-02-24 1950 8.4- 253.2
2024-02-24 1940 12.0- 264.5
2024-02-24 1930 16.2- 286.2
2024-02-24 1920 20.2- 291.9
2024-02-24 1910 26.1- 280.6
2024-02-24 1900 32.5- 268.0
2024-02-24 1850 27.8- 256.3
2024-02-24 1840 40.6- 259.4
2024-02-24 1830 74.7- 259.2
2024-02-24 1820 77.0- 263.8
2024-02-24 1810 107.2- 283.1
2024-02-24 1800 86.4- 285.3
2024-02-24 1750 86.7- 283.0
2024-02-24 1740 99.0- 291.7
2024-02-24 1730 101.3- 287.6
2024-02-24 1720 108.5- 282.3
2024-02-24 1710 122.5- 278.3
2024-02-24 1700 320.7- 183.4
2024-02-24 1650 351.8- 281.7
2024-02-24 1640 312.4- 276.8
2024-02-24 1630 185.5- 272.5
2024-02-24 1620 157.5- 271.4
2024-02-24 1610 165.8- 280.9
2024-02-24 1600 153.4- 293.1
2024-02-24 1550 198.8- 291.8
2024-02-24 1540 156.8- 284.3
2024-02-24 1530 235.2- 271.0
2024-02-24 1520 253.8- 260.6
2024-02-24 1510 309.8- 248.4
2024-02-24 1500 316.2- 243.0
2024-02-24 1450 320.9- 242.3
2024-02-24 1440 341.7- 246.4
2024-02-24 1430 407.1- 258.0
2024-02-24 1420 319.9- 261.5
2024-02-24 1410 257.7- 254.3
2024-02-24 1400 291.6- 252.0
2024-02-24 1350 280.8- 256.6
2024-02-24 1340 175.3- 260.2
2024-02-24 1330 279.5- 269.2
2024-02-24 1320 330.9- 265.4
2024-02-24 1310 214.0- 255.7
2024-02-24 1300 164.7- 256.7
2024-02-24 1250 263.4- 267.3
2024-02-24 1240 174.7- 270.7
2024-02-24 1230 199.3- 264.8
2024-02-24 1220 215.6- 268.6
2024-02-24 1210 253.9- 261.5
2024-02-24 1200 239.5- 260.4
2024-02-24 1150 178.6- 256.6
2024-02-24 1140 158.8- 257.5
2024-02-24 1130 155.2- 256.4
2024-02-24 1120 100.8- 254.4
2024-02-24 1110 88.4- 254.2
2024-02-24 1100 109.0- 226.9
2024-02-24 1050 110.3- 255.5
2024-02-24 1040 92.1- 254.3
2024-02-24 1030 68.8- 252.3
2024-02-24 1020 49.3- 251.7
2024-02-24 1010 34.0- 250.8
2024-02-24 1000 20.4- 249.9
2024-02-24 0950 11.5- 248.9
2024-02-24 0940 7.9- 248.9
2024-02-24 0930 6.3- 248.3
2024-02-24 0920 5.7- 248.1
2024-02-24 0910 5.5- 248.3
2024-02-24 0900 5.4- 248.0
2024-02-24 0850 5.6- 247.8
2024-02-24 0840 5.7- 248.0
2024-02-24 0830 5.7- 248.0
2024-02-24 0820 5.8- 247.7
2024-02-24 0810 5.6- 248.3
2024-02-24 0800 5.5- 248.2
2024-02-24 0750 5.2- 247.5
2024-02-24 0740 5.0- 246.9
2024-02-24 0730 5.0- 246.8
2024-02-24 0720 5.0- 246.9
2024-02-24 0710 5.0- 246.4
2024-02-24 0700 5.0- 246.3
2024-02-24 0650 4.9- 246.2
2024-02-24 0640 4.9- 246.3
2024-02-24 0630 4.8- 245.6
2024-02-24 0620 4.7- 245.5
2024-02-24 0610 4.8- 246.6
2024-02-24 0600 4.9- 249.9
2024-02-24 0550 5.2- 255.1
2024-02-24 0540 5.3- 258.2
2024-02-24 0530 5.5- 259.0
2024-02-24 0520 5.8- 263.0
2024-02-24 0510 5.9- 265.8
2024-02-24 0500 5.9- 264.3
2024-02-24 0450 5.9- 262.7